[Iaude] MPEC F113: 2024 FL3 [a=2.01,e=0.53,i=1.6,H=25.2]
    mpec at cfa.harvard.edu 
    mpec at cfa.harvard.edu
       
    Sun Mar 31 08:52:45 EDT 2024
    
    
  
M.P.E.C. 2024-F113                               Issued 2024 March 31, 12:51 UT
     The Minor Planet Electronic Circulars contain information on unusual
         minor planets, routine data on comets and natural satellites,
         and occasional editorial announcements.  They are published
    on behalf of Division F of the International Astronomical Union by the
          Minor Planet Center, Smithsonian Astrophysical Observatory,
                          Cambridge, MA 02138, U.S.A.
			  
             Prepared using the Tamkin Foundation Computer Network
                              MPC at CFA.HARVARD.EDU
            URL https://www.minorplanetcenter.net/    ISSN 1523-6714
                                    2024 FL3                                    
Observations:
     K24F03L KC2024 03 06.37077010 24 34.280+13 15 54.71         22.92GVEF113F52
     K24F03L KC2024 03 27.38334910 12 08.218+35 04 21.52         20.43GVEF113F51
     K24F03L KC2024 03 28.38953810 10 55.855+38 48 16.96         20.54GVEF113F52
     K24F03L KC2024 03 29.38493010 09 21.491+43 25 31.43         20.24GVEF113F52
     K24F03L*KC2024 03 29.74661 10 08 50.99 +45 21 46.9          19.7 GXEF113L51
     K24F03L KC2024 03 29.74792 10 08 50.75 +45 22 15.1          19.7 GXEF113L51
     K24F03L KC2024 03 29.74924 10 08 50.46 +45 22 43.4          19.5 GXEF113L51
     K24F03L KC2024 03 29.77936 10 08 43.38 +45 33 06.7          19.7 GXEF113L51
     K24F03L KC2024 03 29.78117 10 08 42.93 +45 33 44.4          19.6 GXEF113L51
     K24F03L KC2024 03 29.78299 10 08 42.53 +45 34 22.1          19.8 GXEF113L51
     K24F03L KC2024 03 29.83840510 08 38.842+45 52 52.97         20.2 GVEF113J95
     K24F03L KC2024 03 29.84154410 08 38.162+45 54 00.11               VEF113J95
     K24F03L KC2024 03 29.99690510 08 02.254+46 49 02.64         19.5 GVEF113J95
     K24F03L KC2024 03 29.99978510 08 01.565+46 50 03.77         19.8 GVEF113J95
     K24F03L KC2024 03 30.00356810 08 00.773+46 51 24.62         19.5 GVEF113J95
     K24F03L KC2024 03 30.00772210 07 59.774+46 52 52.93         19.6 GVEF113J95
     K24F03L KB2024 03 30.10581 10 08 02.563+47 30 07.45         19.7 RZEF113H36
     K24F03L KB2024 03 30.11189 10 08 00.898+47 32 24.76         19.6 RZEF113H36
     K24F03L mC2024 03 30.11791510 08 05.017+47 34 50.99         19.90GVEF113I52
     K24F03L KB2024 03 30.11794 10 07 59.278+47 34 41.81         19.4 RZEF113H36
     K24F03L mC2024 03 30.11937210 08 04.600+47 35 24.90         19.65GVEF113I52
     K24F03L mC2024 03 30.12083010 08 04.168+47 35 58.09         20.16GVEF113I52
     K24F03L mC2024 03 30.12107010 08 04.247+47 36 03.78         19.68GVEF113I52
     K24F03L KB2024 03 30.17691 10 07 36.58 +47 57 39.2          18.9 GXEF113W42
     K24F03L KB2024 03 30.18384 10 07 34.59 +48 00 14.1          19.1 GXEF113W42
     K24F03L 1C2024 03 30.18533710 07 46.100+48 00 37.80         19.60GVEF113G96
     K24F03L KB2024 03 30.19086 10 07 32.54 +48 02 50.0          18.7 GXEF113W42
     K24F03L 1C2024 03 30.19150810 07 44.190+48 02 59.90               VEF113G96
     K24F03L  C2024 03 30.20003410 07 40.359+48 06 08.09         20.1 GVEF113H01
     K24F03L  C2024 03 30.20357610 07 39.311+48 07 29.32         19.5 GVEF113H01
     K24F03L 1C2024 03 30.20371710 07 40.520+48 07 39.10               VEF113G96
     K24F03L  C2024 03 30.21453210 07 36.082+48 11 38.97         19.8 GVEF113H01
     K24F03L  C2024 03 30.22736310 07 32.270+48 16 31.89         19.4 GVEF113H01
     K24F03L hC2024 03 30.84086410 05 50.177+52 29 13.70         19.7 GVEF113J95
     K24F03L hC2024 03 30.84618310 05 48.394+52 31 37.13         20.0 GVEF113J95
     K24F03L KB2024 03 30.85114710 05 32.14 +52 34 08.8          19.2 GXEF113L76
     K24F03L KB2024 03 30.85831310 05 29.72 +52 37 19.6          19.4 GXEF113L76
     K24F03L KB2024 03 30.86548510 05 27.21 +52 40 29.1          19.2 GXEF113L76
     K24F03L KC2024 03 30.90781 10 05 13.94 +52 59 30.6          19.9 GXEF113L51
     K24F03L KC2024 03 30.90988 10 05 13.28 +53 00 27.2          19.6 GXEF113L51
     K24F03L KC2024 03 30.91194 10 05 12.57 +53 01 21.9          19.6 GXEF113L51
     K24F03L KC2024 03 31.06153410 05 04.10 +54 11 24.2          19.8 GVEF113H21
     K24F03L KC2024 03 31.06267010 05 03.67 +54 11 57.0          20.3 GVEF113H21
     K24F03L KC2024 03 31.06398110 05 03.18 +54 12 34.8          20.1 GVEF113H21
     K24F03L KC2024 03 31.06835110 05 01.44 +54 14 41.1                VEF113H21
Observer details:
F51 Pan-STARRS 1, Haleakala.  Observers J. Herman, T. Lowe, P. Minguez, A.
    Schultz, I. Smith.  Measurers K. Chambers, T. de Boer, J. Fairlamb, H.
    Gao, M. Huber, C.-C. Lin, E. Magnier, Y. Ramanjooloo, R. Wainscoat, R.
    Weryk.  1.8-m Ritchey-Chretien + CCD.
F52 Pan-STARRS 2, Haleakala.  Observers J. Herman, T. Lowe, P. Minguez, A.
    Schultz, I. Smith.  Measurers K. Chambers, T. de Boer, J. Fairlamb, H.
    Gao, M. Huber, C.-C. Lin, E. Magnier, Y. Ramanjooloo, R. Wainscoat, R.
    Weryk.  1.8-m Ritchey-Chretien + CCD.
G96 Mt. Lemmon Survey.  Observer J. B. Fazekas.  Measurers T. Beuden, V. F.
    Carvajal, D. Fay, J. B. Fazekas, D. C. Fuls, A. R. Gibbs, A. D. Grauer, H.
    Groeller, J. K. Hogan, R. A. Kowalski, S. M. Larson, G. J. Leonard, D.
    Rankin, R. L. Seaman, F. C. Shelly, K. W. Wierzchos.  1.5-m reflector +
    10K CCD.
H01 Magdalena Ridge Observatory, Socorro.  Observers W. H. Ryan, E. V. Ryan.
    Measurer W. H. Ryan.  2.4-m f/8.9 Ritchey-Chretien + CCD.
H21 Astronomical Research Observatory, Westfield.  Observer R. Holmes.
    Measurers T. Linder, R. Holmes, L. Horn.  0.76-m f/3.0 astrograph + CCD.
H36 Sandlot Observatory, Scranton.  Observer G. Hug.  0.56-m f/4.8 reflector +
    CMO.
I52 Steward Observatory, Mt. Lemmon Station.  Observers T. Beuden, H.
    Groeller.  Measurers T. Beuden, V. F. Carvajal, D. Fay, J. B. Fazekas, D.
    C. Fuls, A. R. Gibbs, A. D. Grauer, H. Groeller, J. K. Hogan, R. A.
    Kowalski, S. M. Larson, G. J. Leonard, D. Rankin, R. L. Seaman, F. C.
    Shelly, K. W. Wierzchos.  1.0-m prime focus + CCD.
J95 Great Shefford.  Observer P. Birtwhistle.  0.41-m f/6.3 Schmidt-Cassegrain
    + CCD.
L51 MARGO, Nauchnyi.  Observer G. Borisov.  0.50-m f/1.9 reflector + CCD.
L76 Nomad Observatory, Kochevanchik.  Observer E. Romas.  0.25-m f/4 Newtonian
    + CMO.
W42 Mind's Eye Observatory, Vero Beach.  Observer J. T. Grage.  0.30-m f/3.3
    SCT + CMO.
Orbital elements:
2024 FL3                                                 Earth MOID = 0.0196 AU
Epoch 2024 Mar. 31.0 TT = JDT 2460400.5                 Veres                   
M 350.03550              (2000.0)            P               Q                  
n   0.34524671     Peri.   77.82566     -0.69431747     +0.71951480             
a   2.0124095      Node   148.18512     -0.67077951     -0.63951617             
e   0.5319724      Incl.    1.61850     -0.26072611     -0.27077209             
P   2.85           H   25.22          G   0.15           U   7                  
Residuals in seconds of arc
240306 F52  0.0   0.0     240330 J95  0.5-  0.7-    240330 G96  1.4-  0.2-
240327 F51  0.0   0.6-    240330 H36  0.4+  0.3+    240330 H01  0.1+  0.3-
240328 F52  0.0   0.1+    240330 H36  0.0   0.2-    240330 H01  0.0   0.2-
240329 F52  0.0   0.4+    240330 I52  0.2+  0.4-    240330 J95  0.1+  0.8+
240329 L51  1.1+  0.9-    240330 H36  0.1+  0.4-    240330 J95  0.1-  0.2-
240329 L51  1.7+  0.1+    240330 I52  0.1-  0.1+    240330 L76  0.2-  0.3-
240329 L51  1.8+  1.1+    240330 I52  0.6-  0.2-    240330 L76  0.3+  0.6+
240329 L51  0.4+  0.4-    240330 I52  0.9+  0.0     240330 L76  0.0   0.1+
240329 L51  0.1+  0.2-    240330 W42  0.3-  0.2+    240330 L51  0.4-  1.5-
240329 L51  0.4+  0.2-    240330 W42  0.2+  0.1+    240330 L51  0.0   0.1+
240329 J95  0.1+  1.5-    240330 G96  0.1+  0.3-    240330 L51  0.0   0.1-
240329 J95  0.2+  0.8-    240330 W42  0.3+  1.0-    240331 H21  0.3-  0.0
240329 J95  0.1-  0.3-    240330 G96  0.9-  0.4+    240331 H21  0.2-  0.0
240329 J95  0.5-  0.6-    240330 H01  0.0   0.1-    240331 H21  0.0   0.1-
240330 J95  0.2+  0.4-    240330 H01  0.0   0.2+    240331 H21  0.2-  0.1-
Ephemeris:
2024 FL3                 a,e,i = 2.01, 0.53, 2                   q = 0.9419
Date    TT    R. A. (2000) Decl.     Delta      r    Elong.  Phase     V
2024 03 01    10 27 01.7 +11 43 10   0.2008  1.1905   173.4     5.5    22.6
...
2024 03 16    10 19 26.1 +17 54 37   0.1072  1.0919   153.8    23.7    21.7
...
2024 03 24    10 14 53.4 +26 46 25   0.06328 1.0462   140.0    37.8    20.8
...
2024 03 30    10 08 10.5 +46 50 32   0.03400 1.0161   120.0    58.3    20.0
2024 03 31    10 05 06.8 +53 41 22   0.02998 1.0115   113.9    64.5    19.9
2024 04 01    09 59 24.3 +62 27 32   0.02651 1.0070   106.3    72.3    19.9
...
2024 04 07    22 28 48.9 +42 59 57   0.02850 0.9828    49.7   129.0    23.1
...
2024 04 15    22 23 44.7 +11 56 55   0.06655 0.9587    46.6   130.6    25.0
...
2024 04 30    22 31 43.7 +01 30 44   0.1488  0.9421    60.1   112.0    25.2
M. P. C. Staff               (C) Copyright 2024 MPC           M.P.E.C. 2024-F113
    
    
More information about the Iaude
mailing list